Deelen, Netherlands

1:31 AM CET on February 08, 2016 (GMT +0100)
Deelen Air Base

Weather History for EHDL - February, 2014

Change the Weather History Date:

Monday, February 10, 2014

  Actual Average Record
Temperature  
Mean Temperature 39 °F -  
Max Temperature 45 °F 44 °F 55 °F (2008)
Min Temperature 33 °F 34 °F 17 °F (2012)
Degree Days  
Heating Degree Days 26    
Moisture  
Dew Point 36 °F    
Average Humidity 86    
Maximum Humidity 100    
Minimum Humidity 57    
Precipitation  
Precipitation 0.00 in - - ()
Sea Level Pressure  
Sea Level Pressure 29.38 in    
Wind  
Wind Speed 7 mph ()    
Max Wind Speed 18 mph    
Max Gust Speed -    
Visibility 8.2 miles    
Events Rain    
Averages and records for this station are not official NWS values.
T = Trace of Precipitation, MM = Missing Value Source: Averaged Metar Reports

Daily Weather History Graph

Daily Weather History Graph

Search for Another Location

Airport or City:

Trip Planner

Search our weather history database for the weather conditions in past years. The results will help you decide how hot, cold, wet, or windy it might be!

Date:

Astronomy

Feb. 10, 2014 Rise Set
Actual Time 8:01 AM CET 5:40 PM CET
Civil Twilight 7:25 AM CET 6:16 PM CET
Nautical Twilight 6:46 AM CET 6:56 PM CET
Astronomical Twilight 6:06 AM CET 7:35 PM CET
Moon 1:43 PM CET (2/10) 4:55 AM CET (2/10)
Length of Visible Light 10h 50m
Length of Day
9h 39m
Waxing Gibbous, 82% of the Moon is Illuminated
Feb 10
Waxing Gibbous
Feb 15
Full
Feb 22
Last Quarter
Mar 1
New
Mar 8
First Quarter

Hourly Weather History & Observations

Time (CET) Temp. Windchill Dew Point Humidity Pressure Visibility Wind Dir Wind Speed Gust Speed Precip Events Conditions
12:00 AM 39 °F - 36 °F 87% 29.42 in 7 mi SW 17.9 mph - - Rain Heavy Rain
12:25 AM 39.2 °F 31.2 °F 37.4 °F 93% 29.42 in 3.7 mi SW 13.8 mph - N/A Rain Rain Showers
12:55 AM 39.2 °F 32.0 °F 37.4 °F 93% 29.42 in 6.2 mi SSW 11.5 mph - N/A Rain Light Rain
1:00 AM 38 °F - 36 °F 92% 29.42 in 14 mi SSW 13.4 mph - - Rain Light Rain
1:25 AM 39.2 °F 31.2 °F 37.4 °F 93% 29.42 in 6.2 mi SSW 13.8 mph - N/A   Drizzle
1:55 AM 37.4 °F 32.1 °F 37.4 °F 100% 29.39 in 6.2 mi South 6.9 mph - N/A   Mostly Cloudy
2:00 AM 38 °F - 36 °F 91% 29.41 in 13 mi South 6.7 mph - - Rain Rain
2:25 AM 37.4 °F 32.1 °F 35.6 °F 93% 29.39 in 6.2 mi SSE 6.9 mph - N/A   Partly Cloudy
2:55 AM 35.6 °F 30.7 °F 33.8 °F 93% 29.39 in 6.2 mi SE 5.8 mph - N/A   Partly Cloudy
3:00 AM 35 °F - 35 °F 98% 29.41 in 6 mi SE 4.5 mph - -   Scattered Clouds
3:25 AM 35.6 °F 30.7 °F 35.6 °F 100% 29.39 in 6.2 mi SE 5.8 mph - N/A   Unknown
3:55 AM 35.6 °F 30.7 °F 33.8 °F 93% 29.39 in 6.2 mi SE 5.8 mph - N/A   Scattered Clouds
4:00 AM 34 °F - 34 °F 98% 29.39 in 8 mi ESE 4.5 mph - -   Partly Cloudy
4:25 AM 33.8 °F 30.8 °F 32.0 °F 93% 29.36 in 6.2 mi SE 3.5 mph - N/A   Partly Cloudy
4:55 AM 35.6 °F 29.2 °F 33.8 °F 93% 29.36 in 6.2 mi SSE 8.1 mph - N/A   Overcast
5:00 AM 36 °F - 35 °F 94% 29.39 in 9 mi SSE 6.7 mph - -   Partly Cloudy
5:25 AM 37.4 °F 32.1 °F 35.6 °F 93% 29.36 in 6.2 mi SSE 6.9 mph - N/A   Overcast
5:55 AM 37.4 °F 31.4 °F 35.6 °F 93% 29.36 in 6.2 mi SSE 8.1 mph - N/A   Overcast
6:00 AM 36 °F - 35 °F 94% 29.38 in 17 mi SSE 8.9 mph - -   Partly Cloudy
6:25 AM 35.6 °F 29.2 °F 35.6 °F 100% 29.36 in 6.2 mi SE 8.1 mph - N/A   Overcast
6:55 AM 35.6 °F 29.2 °F 33.8 °F 93% 29.36 in 6.2 mi SE 8.1 mph - N/A   Overcast
7:00 AM 36 °F - 34 °F 90% 29.38 in 19 mi SE 6.7 mph - -   Partly Cloudy
7:25 AM 35.6 °F 29.2 °F 33.8 °F 93% 29.36 in 6.2 mi SE 8.1 mph - N/A   Overcast
7:55 AM 35.6 °F 28.6 °F 33.8 °F 93% 29.36 in 6.2 mi SE 9.2 mph - N/A   Mostly Cloudy
8:00 AM 36 °F - 34 °F 91% 29.38 in 15 mi SE 8.9 mph - -   Overcast
8:25 AM 37.4 °F 30.8 °F 33.8 °F 87% 29.36 in 6.2 mi SE 9.2 mph - N/A   Overcast
8:55 AM 37.4 °F 32.1 °F 33.8 °F 87% 29.39 in 6.2 mi SE 6.9 mph - N/A   Mostly Cloudy
9:00 AM 37 °F - 35 °F 88% 29.39 in 15 mi SE 6.7 mph - -   Mostly Cloudy
9:25 AM 37.4 °F 31.4 °F 35.6 °F 93% 29.39 in 6.2 mi SSE 8.1 mph - N/A   Mostly Cloudy
9:55 AM 39.2 °F 33.6 °F 35.6 °F 87% 29.39 in 6.2 mi SSE 8.1 mph - N/A   Mostly Cloudy
10:00 AM 39 °F - 35 °F 80% 29.40 in 19 mi SSE 8.9 mph - -   Partly Cloudy
10:25 AM 39.2 °F 33.6 °F 35.6 °F 87% 29.39 in 6.2 mi SSE 8.1 mph - N/A   Scattered Clouds
10:55 AM 39.2 °F 34.2 °F 35.6 °F 87% 29.39 in 6.2 mi SSE 6.9 mph - N/A   Overcast
11:00 AM 40 °F - 35 °F 77% 29.41 in 19 mi SSE 4.5 mph - -   Mostly Cloudy
11:25 AM 41.0 °F 38.0 °F 35.6 °F 81% 29.39 in 6.2 mi South 4.6 mph - N/A   Mostly Cloudy
11:55 AM 42.8 °F 41.1 °F 35.6 °F 76% 29.39 in 6.2 mi SSE 3.5 mph - N/A   Mostly Cloudy
11:59 AM 42.8 °F 40.1 °F 37.4 °F 81% 29.39 in 6.2 mi SE 4.6 mph - N/A   Mostly Cloudy
12:00 PM 42 °F - 37 °F 75% 29.41 in 22 mi SE 4.5 mph - -   Scattered Clouds
12:25 PM 42.8 °F 41.1 °F 37.4 °F 81% 29.39 in 6.2 mi ESE 3.5 mph - N/A   Mostly Cloudy
12:55 PM 42.8 °F 40.1 °F 37.4 °F 81% 29.39 in 6.2 mi ENE 4.6 mph - N/A   Scattered Clouds
1:00 PM 44 °F - 37 °F 67% 29.38 in 17 mi ENE 4.5 mph - -   Partly Cloudy
1:13 PM 44.6 °F 42.2 °F 35.6 °F 71% 29.36 in 6.2 mi ENE 4.6 mph - N/A   Mostly Cloudy
1:25 PM 44.6 °F 42.2 °F 35.6 °F 71% 29.36 in 6.2 mi ENE 4.6 mph - N/A   Mostly Cloudy
1:55 PM 46.4 °F - 35.6 °F 66% 29.36 in 6.2 mi East 2.3 mph - N/A   Mostly Cloudy
2:00 PM 46 °F - 36 °F 57% 29.35 in 22 mi East 2.2 mph - -   Mostly Cloudy
2:25 PM 46.4 °F 45.2 °F 35.6 °F 66% 29.33 in 6.2 mi East 3.5 mph - N/A   Mostly Cloudy
2:55 PM 44.6 °F 41.4 °F 37.4 °F 76% 29.33 in 6.2 mi ENE 5.8 mph - N/A   Mostly Cloudy
3:00 PM 45 °F - 39 °F 71% 29.35 in 25 mi NE 8.9 mph - -   Mostly Cloudy
3:25 PM 44.6 °F 40.2 °F 37.4 °F 76% 29.33 in 6.2 mi NE 8.1 mph - N/A   Mostly Cloudy
3:55 PM 44.6 °F 41.4 °F 37.4 °F 76% 29.33 in 6.2 mi ENE 5.8 mph - N/A   Mostly Cloudy
4:00 PM 44 °F - 36 °F 66% 29.35 in 22 mi ENE 8.9 mph - -   Mostly Cloudy
4:25 PM 42.8 °F 39.3 °F 37.4 °F 81% 29.33 in 6.2 mi ENE 5.8 mph - N/A   Mostly Cloudy
4:55 PM 42.8 °F 41.1 °F 37.4 °F 81% 29.36 in 6.2 mi NE 3.5 mph - N/A   Mostly Cloudy
5:00 PM 43 °F - 37 °F 74% 29.37 in 22 mi NE 4.5 mph - -   Overcast
5:25 PM 42.8 °F 40.1 °F 37.4 °F 81% 29.36 in 6.2 mi NE 4.6 mph - N/A   Mostly Cloudy
5:55 PM 41.0 °F 39.0 °F 37.4 °F 87% 29.36 in 6.2 mi NE 3.5 mph - N/A   Mostly Cloudy
6:00 PM 42 °F - 36 °F 74% 29.37 in 22 mi NE 4.5 mph - -   Mostly Cloudy
6:25 PM 41.0 °F 39.0 °F 37.4 °F 87% 29.36 in 6.2 mi NE 3.5 mph - N/A   Mostly Cloudy
6:55 PM 41.0 °F - 37.4 °F 87% 29.36 in 6.2 mi NE 2.3 mph - N/A   Mostly Cloudy
7:00 PM 41 °F - 36 °F 77% 29.39 in 18 mi NE 2.2 mph - -   Partly Cloudy
7:25 PM 41.0 °F - 35.6 °F 81% 29.39 in 6.2 mi WSW 2.3 mph - N/A   Overcast
7:55 PM 39.2 °F 37.0 °F 37.4 °F 93% 29.39 in 6.2 mi WSW 3.5 mph - N/A   Mostly Cloudy
8:00 PM 40 °F - 37 °F 84% 29.40 in 19 mi WSW 2.2 mph - -   Scattered Clouds
8:25 PM 39.2 °F 37.0 °F 37.4 °F 93% 29.39 in 6.2 mi SW 3.5 mph - N/A   Mostly Cloudy
8:55 PM 39.2 °F - 37.4 °F 93% 29.39 in 6.2 mi SW 1.2 mph - N/A   Light Drizzle
9:00 PM 38 °F - 36 °F 91% 29.41 in 12 mi Calm Calm - - Rain Light Drizzle
9:25 PM 39.2 °F - 37.4 °F 93% 29.39 in 6.2 mi SW 1.2 mph - N/A   Mostly Cloudy
9:55 PM 37.4 °F - 37.4 °F 100% 29.42 in 6.2 mi SW 2.3 mph - N/A   Overcast
10:00 PM 38 °F - 37 °F 94% 29.42 in 12 mi WSW 2.2 mph - - Rain Drizzle
10:25 PM 37.4 °F - 37.4 °F 100% 29.39 in 6.2 mi WSW 1.2 mph - N/A   Overcast
10:55 PM 37.4 °F 32.8 °F 35.6 °F 93% 29.42 in 6.2 mi SW 5.8 mph - N/A   Mostly Cloudy
11:00 PM 36 °F - 35 °F 96% 29.43 in 11 mi SW 6.7 mph - -   Partly Cloudy
11:25 PM 35.6 °F 31.7 °F 35.6 °F 100% 29.42 in 6.2 mi WSW 4.6 mph - N/A   Mostly Cloudy
11:55 PM 35.6 °F - 35.6 °F 100% 29.42 in 6.2 mi SSW 2.3 mph - N/A   Overcast